KIND Airport Diagram

We have created a template for each of the higher traffic airports in the vZID airspace. They include KCMH, KCRW, KCVG, KDAY, KIND, KLEX and KSDF. You wil find usefull information including the airport diagram, weather, and specific airport procedures.

KIND Weather

[Source: ADDS]
METAR
KIND 230454Z 04009KT 10SM OVC060 22/19 A3001 RMK AO2 SLP157 T02220194 402610211 =
KIND 230520Z 2306/2412 04006KT P6SM BKN060 FM230900 05007KT P6SM BKN200 FM231700 06011KT P6SM FEW030 SCT250 FM240200 06005KT P6SM FEW250
TAF
KIND 230520Z 2306/2412 04006KT P6SM BKN060 FM230900 05007KT P6SM BKN200 FM231700 06011KT P6SM FEW030 SCT250 FM240200 06005KT P6SM FEW250 =

KIND Operations

 Calm Wind Configuration is runways 23L/R, up to and including 10kts.

Runway 23L typically departs South and East, Runway 23R typically departs North and West.

FedEx pilots should expect runway 23L or 5R.

Contraflow (noise abatement) procedures from 2200L to 0600L, landing Runway 5R, departing Runway 23R, weather permitted.

New Scenery is available at FlightSim.com and Blueprint Simulations. On initial contact, arriving aircraft should notify the the controller if their scenery has the Midfield Terminal.

FBOs: Signature is near taxiway D and Millionaire is near taxiway A, both are North of taxiway M.

 

JSN Epic template designed by JoomlaShine.com